Temp_Advection
nan nan nan nan nan nan nan nan nan nan nan nan nan nan nan nan nan nan nan nan nan nan nan nan nan nan nan nan nan nan nan nan nan nan nan nan nan nan nan nan nan nan nan nan nan nan nan nan nan nan nan nan nan nan nan nan nan nan nan nan nan nan nan nan nan nan nan nan nan
nan 0 0 1 1 0 1 1 1 2 2 2 1 -0 -0 1 -0 -0 -0 -0 -1 -1 -1 -1 -0 -0 0 0 0 0 0 -0 -0 -0 -0 0 0 0 0 0 0 0 0 -0 -0 -0 -0 -0 -0 -0 -0 -0 -0 -0 -0 -0 -0 -0 -0 -0 -0 -0 -0 0 0 0 0 0 nan
nan 2 2 1 1 -0 -0 -0 0 0 1 1 1 1 1 1 0 -1 -1 -1 -1 -1 -1 -1 -0 0 0 0 0 0 0 -0 -0 -0 -0 0 0 0 0 0 0 0 0 0 -0 -0 -0 -0 -0 0 0 -0 -0 -0 -0 -0 -0 -0 -0 0 0 0 0 0 0 0 0 0 nan
nan 2 2 1 1 0 -1 -1 -1 -1 -0 -1 0 1 1 0 -0 -1 -1 -2 -2 -1 -1 -1 -0 0 0 0 -0 -0 -0 -0 -0 -0 0 0 0 0 0 0 0 0 0 -0 -0 -0 -0 -0 -0 0 0 0 -0 -0 -0 -0 -0 -0 0 0 0 0 0 0 0 0 0 0 nan
nan 2 1 1 1 1 1 -1 -1 -1 -1 -0 -0 -0 -0 -0 -1 -1 -2 -2 -2 -1 -1 -0 -0 -0 0 0 -0 -0 -0 -0 0 0 0 -0 0 0 0 0 -0 -0 -0 -0 -0 -0 -0 -0 -0 0 0 0 -0 -0 -0 -0 0 0 0 0 0 0 0 0 0 0 0 0 nan
nan 0 0 -0 -0 0 1 1 -0 -1 -0 1 0 -1 -2 -1 -1 -1 -2 -2 -1 -1 0 0 0 -0 -0 -0 -0 -0 -0 -0 0 0 0 -0 0 0 0 -0 -0 -0 -0 -0 -0 -0 -0 -0 -0 -0 -0 -0 -0 -0 -0 0 0 0 0 0 0 0 0 0 0 0 0 0 nan
nan -0 -1 -1 -1 -0 1 1 1 0 0 1 1 0 -1 -1 -2 -2 -2 -1 -1 -0 0 0 -0 -0 -1 -0 -0 -0 -0 -0 0 0 -0 -0 -0 -0 -0 -0 -0 -1 -1 -1 -1 -0 -0 -0 -0 -0 -0 -0 -0 -0 0 0 0 0 0 0 0 0 0 0 0 0 0 0 nan
nan -0 -1 -1 1 1 1 1 -0 -1 -1 0 2 2 1 -0 -1 -2 -1 -1 -0 -0 -0 0 -0 -0 -0 -0 -0 -0 -0 -0 -0 -0 -0 -0 -0 -0 -0 -0 -1 -1 -1 -1 -1 -1 -0 -0 -0 -0 -1 -1 -0 -0 0 0 0 0 0 0 0 0 0 0 0 0 0 0 nan
nan 1 0 0 1 1 1 -0 -1 -2 -2 -1 1 2 2 0 -1 -1 -1 -1 -0 -0 -0 -0 -0 -0 -0 -0 -0 -0 -1 -1 -0 -0 -0 -0 -0 -0 -1 -1 -1 -1 -1 -1 -0 -0 -0 -0 -0 -0 -0 -0 -0 -0 0 0 0 0 0 0 0 0 0 0 0 0 0 0 nan
nan -0 -0 -1 -1 -1 -1 -1 -1 -1 -1 -1 -0 1 1 1 0 -0 -0 -1 -1 -0 -0 -0 -0 -0 -0 -0 -1 -1 -1 -0 -0 -0 -0 -0 -0 -1 -1 -1 -1 -1 -1 -1 -0 -0 -0 -0 -0 -0 -0 -0 0 0 0 0 0 0 0 0 0 0 0 0 0 -0 0 0 nan
nan -1 -1 -1 -2 -1 -1 -1 0 1 1 0 0 0 1 1 0 0 -0 -1 -1 -1 -0 -0 -0 -1 -1 -1 -1 -1 -0 -0 -0 0 -0 -0 -0 -1 -1 -1 -1 -1 -1 -0 -0 -0 -0 -0 -0 -0 0 0 0 0 0 0 0 0 0 0 0 0 0 0 0 0 0 0 nan
nan -0 -0 -0 -1 -1 -0 -0 1 1 1 1 0 0 0 1 0 -0 -0 -1 -1 -0 -0 0 -0 -1 -1 -1 -1 -0 -0 -0 0 0 -0 -0 -1 -1 -1 -1 -0 -0 -0 -0 -0 -0 -0 0 0 0 0 0 0 0 0 0 0 0 0 0 0 0 0 0 0 0 0 0 nan
nan 0 0 0 -0 0 0 1 1 1 1 1 0 0 0 0 0 0 -0 -0 -0 -0 -0 0 0 -0 -0 -1 -1 -0 -0 -0 -0 -0 -0 -1 -1 -1 -0 -0 -0 0 0 0 -0 -0 0 0 0 0 0 0 0 0 0 0 0 0 0 0 0 0 -0 -0 0 0 0 0 nan
nan 1 1 1 0 1 1 1 1 1 0 0 0 -0 -0 0 0 0 0 0 0 -0 -0 0 0 0 0 -0 -0 -0 -0 -0 -0 -1 -1 -1 -1 -0 -0 -0 0 0 0 0 0 0 0 0 0 0 0 0 0 0 0 0 0 0 0 0 0 -0 -0 0 0 0 0 0 nan
nan 1 1 1 1 1 1 1 0 0 0 0 0 0 -0 -0 0 1 1 1 1 0 -0 -0 0 1 1 0 -0 -0 -0 -1 -1 -1 -1 -1 -1 -0 -0 -0 -0 -0 0 0 0 0 0 0 0 0 0 0 0 0 0 0 0 0 0 0 0 0 0 0 0 0 0 0 nan
nan 1 1 1 0 0 0 -0 -1 -0 0 0 0 -0 -0 -0 0 1 1 1 1 1 0 0 -0 -0 0 0 0 -0 -1 -1 -1 -1 -1 -1 -0 -0 -0 -0 0 0 0 0 0 0 0 0 0 0 0 0 0 0 0 0 0 0 0 -0 0 0 0 0 0 0 0 -0 nan
nan 0 0 -0 -0 -0 -0 -0 -0 -0 -0 -0 -0 -0 -0 -0 0 1 1 1 0 0 0 -0 -1 -1 -1 -1 -0 -0 -0 -0 -0 -0 -0 -0 -0 -0 -0 0 0 0 0 0 0 0 0 0 0 0 0 0 0 0 0 0 0 0 -0 -0 0 0 0 -0 0 0 0 -0 nan
nan -1 -0 -0 0 0 0 0 0 -0 -0 -0 -0 -0 -0 0 0 1 1 1 0 -1 -1 -1 -1 -1 -1 -1 -1 -0 0 0 -0 -0 0 -0 -0 -0 0 0 0 0 0 0 0 0 0 0 0 0 0 0 0 0 0 0 -0 -0 -0 0 0 -0 -0 -0 0 0 0 -0 nan
nan -0 0 1 1 1 1 1 0 -0 -0 -0 -0 -0 0 1 1 0 1 1 0 -1 -2 -2 -1 -1 -0 -0 -0 0 0 0 -0 -0 0 0 0 0 0 0 0 0 0 0 0 0 0 0 0 0 0 0 0 0 0 -0 -0 -0 0 0 -0 -0 -0 -0 0 0 0 -0 nan
nan 1 1 1 1 1 1 1 0 -0 -0 -0 -0 0 1 1 1 0 -0 -1 -0 -1 -1 -1 -1 -1 0 0 0 0 0 0 0 -0 0 0 0 0 0 0 0 0 0 0 0 0 0 0 0 0 0 0 -0 -0 -0 -0 -0 -0 0 0 -0 -0 -0 0 0 0 -0 -0 nan
nan 1 1 1 1 1 1 0 0 -0 -0 0 0 1 0 0 0 0 -0 -1 -0 0 0 0 -0 -0 -0 0 -0 -0 -0 -0 -0 0 0 0 0 0 0 0 0 0 0 0 0 0 0 0 0 0 -0 -0 -0 -0 -0 -0 -0 -0 0 -0 -0 -0 0 0 0 0 -0 -0 nan
nan 1 1 1 1 1 0 0 0 0 0 0 1 0 0 0 0 0 0 0 0 1 1 1 1 0 -0 -0 -1 -1 -1 -1 -0 0 0 0 0 0 0 0 0 0 0 0 0 0 0 -0 -0 -0 -0 -0 -0 -0 -0 -0 -0 0 -0 -0 -0 0 0 0 0 0 -0 -0 nan
nan 1 1 1 1 0 0 0 1 1 1 0 0 0 0 0 1 1 1 1 1 1 1 1 1 1 0 -0 -0 -1 -1 -1 -0 -0 0 0 0 0 0 0 0 0 0 0 -0 -0 -0 -0 -0 -0 -0 -0 -0 -0 -0 -0 0 0 -0 -0 -0 0 0 0 0 -0 -0 -0 nan
nan 0 0 0 0 0 0 0 0 0 0 0 1 1 1 1 1 1 1 1 1 1 1 0 0 0 0 0 -0 -0 -0 -0 -0 -0 0 0 0 0 0 0 0 0 0 -0 -0 -0 -0 -0 -0 -0 -0 -0 -0 -0 -0 0 0 0 0 0 0 0 0 0 -0 -0 -0 -0 nan
nan 0 0 0 0 0 0 0 0 0 0 1 1 1 1 1 1 1 1 1 1 0 0 -0 -0 0 0 0 0 0 0 0 0 -0 -0 0 0 0 0 0 0 0 -0 -0 -0 -0 -0 -0 -0 0 0 0 0 0 0 0 0 0 0 0 0 0 0 0 -0 0 0 0 nan
nan 0 0 0 0 0 0 0 0 1 1 1 1 1 1 1 1 1 0 0 0 0 0 0 0 0 0 0 0 0 1 1 0 0 0 -0 -0 -0 -0 -0 -0 -0 -0 -0 -0 -0 0 0 0 0 0 0 0 0 0 0 0 0 0 0 0 0 0 0 0 0 0 0 nan
nan 0 0 0 0 1 1 1 1 1 1 1 1 1 1 1 1 0 0 -0 -0 -0 0 0 0 0 0 0 0 0 0 0 0 0 0 0 -0 -0 -0 -0 -0 -0 -0 -0 -0 0 0 0 0 0 0 0 0 0 0 0 0 0 0 0 0 0 0 0 0 0 0 0 nan
nan 0 0 0 1 1 1 1 1 1 1 1 1 1 1 0 0 -0 -0 -0 -0 -0 0 0 0 0 0 1 0 0 0 0 0 0 0 0 0 0 0 -0 -0 -0 -0 -0 -0 0 0 0 0 0 0 0 0 0 0 0 0 0 0 0 0 0 0 0 0 0 0 -0 nan
nan 0 0 0 0 1 1 1 1 1 1 1 1 1 0 0 -0 -0 -0 -0 -0 -0 -0 0 0 0 0 0 0 0 0 0 0 -0 0 0 0 0 0 0 0 -0 -0 0 0 0 0 0 0 0 0 0 0 0 0 0 0 0 0 0 0 0 0 0 0 0 -0 -0 nan
nan 0 0 0 0 1 1 1 1 1 1 1 0 0 -0 -0 -0 -0 -0 0 0 0 0 0 0 0 0 0 0 0 0 0 0 0 0 -0 0 0 0 0 0 0 0 0 0 0 0 0 0 0 0 0 0 0 0 0 0 0 0 0 0 0 0 0 0 -0 -0 -0 nan
nan 1 1 1 1 1 1 1 1 1 0 0 -0 -0 -0 -0 -0 -0 -0 0 0 0 0 0 0 0 0 0 0 0 -0 0 0 0 0 0 -0 0 0 0 0 0 0 0 0 0 0 0 0 0 0 0 0 0 0 0 0 0 0 0 0 0 0 0 0 -0 0 0 nan
nan 1 1 1 1 1 1 0 0 0 -0 -0 -0 -0 -0 -0 -0 0 0 0 0 0 0 0 0 0 0 0 0 0 0 0 0 0 0 0 0 0 -0 0 0 0 0 1 1 0 0 0 0 0 0 0 0 0 0 0 0 0 0 0 0 0 0 0 -0 0 0 0 nan
nan 1 1 0 0 0 0 0 -0 -0 -0 -0 -0 -0 -0 -0 -0 0 0 0 0 0 -0 -0 -0 -0 -0 -0 -0 0 0 0 0 0 0 0 0 0 0 0 0 0 1 1 1 0 0 0 0 0 0 0 0 0 0 0 0 0 0 0 0 0 0 -0 0 0 0 0 nan
nan 0 0 -0 -0 -0 -0 -0 -0 -0 -0 -0 0 0 0 0 -0 -0 0 0 0 0 0 0 0 0 0 0 0 0 0 1 1 1 1 0 0 0 0 0 0 1 1 1 1 0 0 0 0 0 0 0 0 0 0 0 0 0 0 0 0 0 0 -0 0 0 0 0 nan
nan -0 -0 -0 -0 -0 -0 -0 -0 -0 -0 -0 -0 0 0 0 0 0 -0 -0 0 0 0 0 1 1 1 1 1 1 1 1 1 1 1 0 0 0 0 0 1 1 1 1 0 0 0 0 0 0 0 0 0 0 0 -0 0 0 0 0 0 0 -0 -0 -0 0 0 0 nan
nan -1 -1 -0 -0 -0 -0 -0 -0 -0 0 0 -0 -0 0 0 0 0 0 0 0 0 0 1 1 1 1 1 1 1 1 1 1 1 1 0 0 0 0 0 1 1 1 1 1 1 0 0 0 0 0 0 0 0 -0 0 0 0 0 0 0 -0 -0 -0 -0 -0 0 0 nan
nan -1 -1 -1 -0 -0 0 -0 -0 -0 -0 0 0 -0 -0 -0 0 0 0 0 0 0 0 1 1 1 1 1 1 1 1 1 1 1 1 0 0 0 0 0 1 1 1 1 1 0 0 -0 0 0 0 0 0 -0 -0 0 0 0 0 0 -0 -0 -0 -0 -0 0 0 0 nan
nan -1 -1 -1 -1 -0 -0 0 0 0 -0 -0 -0 -0 -0 -0 -0 0 0 0 0 0 0 0 1 1 1 1 1 1 1 1 1 0 0 0 0 0 0 0 0 0 1 1 0 0 -0 -0 0 0 0 0 -0 0 0 0 0 0 0 -0 -0 -0 -0 -0 0 0 0 0 nan
nan -0 -0 -1 -1 -1 -1 -0 0 0 -0 -0 -0 0 0 0 0 0 0 1 1 1 1 1 1 1 1 1 1 0 0 0 0 0 0 -0 0 0 0 0 0 0 0 0 -0 -0 -0 0 0 0 0 -0 0 0 0 0 0 0 -0 -0 -1 -1 -0 -0 0 0 0 0 nan
nan -0 -0 -0 -1 -1 -1 -1 -0 -0 0 0 0 0 0 0 0 0 0 0 1 1 1 1 1 1 1 0 0 0 -0 -0 -0 -0 -0 -0 0 0 0 0 0 0 0 -0 -0 -0 -0 -0 0 0 0 0 0 0 0 0 0 -0 -0 -1 -1 -0 -0 0 0 0 0 0 nan
nan nan nan nan nan nan nan nan nan nan nan nan nan nan nan nan nan nan nan nan nan nan nan nan nan nan nan nan nan nan nan nan nan nan nan nan nan nan nan nan nan nan nan nan nan nan nan nan nan nan nan nan nan nan nan nan nan nan nan nan nan nan nan nan nan nan nan nan nan
Wind_Speed
49 50 49 47 46 46 46 47 47 46 45 46 46 47 48 48 46 46 45 45 45 45 43 41 37 35 33 32 30 29 27 27 27 28 28 27 27 27 27 26 26 26 26 26 25 24 23 22 21 20 18 17 16 16 15 15 15 15 15 15 14 14 13 12 11 10 9 8 8
50 50 48 45 45 46 46 47 46 45 45 45 47 48 48 48 46 46 45 45 45 44 42 38 35 33 32 31 30 28 27 27 28 28 28 28 27 27 27 27 26 26 26 26 25 25 24 23 21 20 19 18 17 16 16 16 16 15 15 14 14 13 12 11 10 9 9 8 8
49 48 46 44 45 46 47 46 45 44 44 45 47 48 48 47 46 46 46 45 44 42 39 36 34 33 32 31 30 28 28 28 28 29 28 28 28 28 27 27 26 26 26 26 25 25 24 23 22 20 19 18 17 17 16 16 16 15 14 13 12 12 11 10 9 9 9 9 8
46 45 44 44 46 47 47 47 46 45 45 46 47 47 47 46 46 46 45 44 42 39 37 35 34 33 32 31 30 29 28 28 28 29 29 29 29 28 28 27 27 26 26 25 25 24 24 23 22 21 19 18 17 17 16 15 15 14 13 12 11 11 10 9 9 9 9 9 9
43 42 43 45 46 46 47 47 47 45 45 46 46 46 46 45 45 45 44 42 40 38 35 34 34 33 32 31 30 29 28 28 28 29 29 30 29 29 28 27 27 26 26 25 25 24 24 23 22 21 20 19 18 17 16 15 14 13 12 12 11 10 9 9 9 9 9 9 9
41 41 43 44 45 46 46 47 46 45 45 45 45 45 45 44 44 43 42 40 38 36 35 34 34 33 33 31 30 29 29 29 29 30 30 30 30 29 28 27 26 26 26 25 25 24 24 24 23 22 21 19 18 17 15 14 13 12 12 11 10 9 9 8 8 8 8 8 8
40 41 43 44 45 45 45 45 44 43 43 44 44 44 44 44 43 42 40 39 37 35 34 34 34 34 33 32 31 30 30 30 30 31 31 31 30 29 28 27 26 26 25 25 25 25 25 24 23 22 21 20 18 17 15 14 13 12 11 10 10 9 9 8 8 8 8 8 8
41 42 44 45 45 45 44 43 42 42 42 42 43 43 43 42 41 40 39 37 36 35 35 34 34 34 33 32 31 31 31 31 31 32 32 31 30 29 28 27 26 26 25 25 25 25 25 24 23 22 21 20 18 17 15 14 12 11 10 10 9 9 9 9 9 8 8 8 8
42 44 45 45 44 43 42 42 41 41 41 42 42 42 42 41 40 38 37 36 35 35 35 35 34 34 33 32 32 32 32 32 32 32 32 31 30 29 28 27 26 26 26 25 25 25 24 24 23 22 20 19 17 16 14 13 12 10 9 9 9 9 9 9 9 9 9 8 8
43 44 44 43 41 40 41 41 40 40 40 41 40 40 40 39 37 36 35 35 35 35 35 35 34 33 33 33 32 32 33 33 33 33 32 31 29 29 28 27 27 27 26 26 25 24 24 23 22 21 19 17 16 15 13 12 11 9 9 9 9 9 10 10 9 9 9 8 8
42 42 41 40 38 38 38 39 39 39 40 40 39 38 37 36 35 34 34 34 35 35 35 35 34 34 33 33 33 33 34 34 33 33 32 30 29 29 28 28 27 26 26 25 24 24 23 22 21 19 18 16 15 14 12 11 10 9 9 9 9 9 9 9 9 9 8 8 8
41 40 39 38 36 36 37 38 39 39 40 39 37 36 35 34 33 32 33 34 35 36 35 34 34 34 34 34 34 34 34 34 33 32 31 30 29 28 28 27 27 26 25 24 23 22 21 20 19 18 16 15 14 13 12 10 10 9 9 9 9 9 9 9 8 8 7 7 7
40 39 38 38 37 37 38 39 39 39 37 36 35 34 33 32 31 32 33 35 36 36 35 34 34 34 34 34 35 35 34 34 33 32 31 30 29 28 28 27 26 25 24 23 22 21 20 19 17 16 15 14 13 12 11 10 10 9 9 9 9 9 8 8 7 6 6 6 6
38 39 39 38 38 38 38 38 37 35 34 34 33 33 32 31 31 32 33 35 36 36 35 34 33 34 34 35 35 35 34 34 33 32 31 30 29 28 27 27 26 25 24 22 21 20 19 18 16 15 14 12 12 11 11 10 10 10 9 9 9 8 8 7 6 6 5 5 5
37 38 38 38 37 37 36 35 33 32 32 32 32 32 31 30 31 32 34 36 36 36 35 34 34 33 34 34 35 35 34 34 33 32 31 30 28 27 26 26 25 24 23 22 20 19 18 17 16 14 13 11 11 11 11 11 10 10 9 9 8 8 7 7 7 6 6 5 5
37 37 36 35 34 33 33 32 31 30 31 32 31 31 30 30 31 32 34 36 36 35 35 34 34 34 34 34 34 34 34 33 33 31 30 29 27 26 25 25 24 23 22 21 20 19 18 17 15 13 12 11 11 11 11 11 11 10 9 9 8 7 7 7 7 7 6 5 5
36 35 33 32 31 30 31 30 30 30 31 31 31 30 30 30 31 33 34 35 36 36 35 35 35 35 34 34 34 34 33 33 32 30 29 27 26 25 24 23 22 22 21 20 20 19 18 16 14 13 12 11 11 11 12 12 11 10 9 9 8 7 7 7 7 6 5 5 6
34 33 31 30 29 30 30 30 31 31 31 30 30 29 29 30 31 33 34 35 36 36 36 35 35 34 34 34 34 33 32 32 30 29 27 26 25 24 23 22 21 21 20 20 18 17 16 15 14 13 12 12 12 12 12 12 11 10 9 8 8 8 8 8 7 6 6 6 7
32 31 29 29 29 29 30 30 31 30 30 30 29 28 28 29 31 33 34 35 35 36 36 35 34 34 33 33 33 32 31 30 29 28 26 25 23 22 22 21 21 20 20 19 18 16 15 15 14 14 13 12 12 12 12 11 11 10 8 8 7 8 8 8 8 7 7 7 8
30 29 28 28 28 29 29 30 30 30 30 29 28 28 28 29 31 32 33 34 34 34 34 34 33 33 32 32 32 31 30 29 28 26 25 24 23 22 21 21 20 20 19 18 17 16 15 15 14 14 13 13 12 12 11 10 9 8 7 7 7 7 8 9 9 9 8 8 9
28 27 27 27 27 28 28 29 29 29 29 28 28 28 28 29 30 31 33 33 33 33 33 32 32 32 31 31 31 30 29 28 27 26 24 23 22 21 21 20 19 19 18 18 17 16 15 15 14 14 13 13 12 11 10 9 8 7 6 6 7 7 8 9 9 9 9 9 10
27 26 26 26 26 27 27 27 28 28 28 28 28 28 28 29 29 30 31 31 32 32 31 31 31 30 30 30 30 30 29 28 27 25 24 23 22 21 20 19 19 18 18 17 16 16 15 15 14 14 14 13 12 11 10 8 7 7 7 7 8 8 9 9 9 10 9 10 10
26 25 25 25 25 25 26 26 27 28 28 28 28 28 28 28 28 29 29 30 30 30 30 30 29 29 29 29 29 29 29 28 27 25 24 23 22 21 20 19 18 18 17 16 16 15 15 15 14 14 14 13 12 11 10 9 8 8 8 8 9 9 9 9 10 10 10 10 10
25 25 24 24 24 24 25 26 27 28 29 29 28 27 27 27 27 28 28 29 29 29 29 29 29 29 29 29 28 28 28 27 26 25 24 22 21 20 20 19 18 17 16 16 15 15 15 14 14 14 13 13 13 12 11 11 10 10 10 10 11 10 10 9 9 9 9 9 9
25 24 24 24 24 24 25 26 27 28 28 28 27 26 26 26 26 27 27 28 28 29 29 29 28 28 28 28 28 27 26 25 25 24 23 22 21 20 19 18 18 17 16 16 15 15 14 13 13 13 13 13 13 13 13 12 12 12 12 11 11 10 9 9 9 9 9 9 8
25 24 24 24 24 24 25 26 26 27 27 27 26 25 25 25 26 26 27 28 28 28 28 28 28 28 28 28 27 26 25 24 24 23 23 22 21 20 19 18 17 17 16 15 15 14 14 13 13 13 13 13 14 14 13 13 13 13 12 11 10 9 9 9 8 8 8 8 7
25 25 24 24 24 24 24 24 25 25 26 26 25 25 24 25 25 26 27 28 28 28 27 27 27 27 27 27 27 26 25 24 24 23 23 22 21 20 18 17 16 16 15 15 14 14 13 13 13 13 13 13 13 13 13 13 13 13 12 10 9 9 8 8 7 7 6 6 6
26 25 25 24 24 24 24 23 24 24 25 25 25 25 24 25 25 26 27 27 27 27 27 27 27 27 27 27 26 26 25 24 24 23 23 22 21 20 19 17 16 15 15 15 14 14 14 13 12 12 11 11 11 11 12 13 14 13 12 10 9 9 8 7 6 5 5 5 5
25 25 24 24 24 23 23 23 24 24 25 25 25 24 24 25 25 26 26 27 27 27 27 27 27 27 27 26 26 25 24 24 24 23 23 22 22 21 19 18 17 16 15 15 14 14 13 12 11 10 9 9 10 10 11 13 13 12 11 10 10 9 8 7 6 5 4 4 5
24 23 23 23 23 23 24 24 24 25 25 25 24 24 24 25 25 26 26 27 27 27 27 27 27 27 26 26 25 24 24 23 23 22 22 22 21 20 20 18 17 16 16 15 14 13 12 11 10 9 9 9 9 10 11 12 12 12 11 11 10 9 8 7 6 5 5 4 4
22 22 23 23 24 24 25 25 25 25 25 24 24 24 24 25 25 26 26 26 26 26 26 26 26 25 25 24 23 23 23 22 22 22 21 21 20 20 19 18 18 17 16 15 14 13 12 11 10 10 9 9 9 10 11 12 12 11 11 10 10 8 7 7 6 6 5 5 4
22 23 24 24 25 25 26 25 25 25 24 24 24 24 24 25 25 25 25 25 25 25 24 24 24 23 23 22 22 22 21 21 21 21 20 20 20 19 19 18 18 17 16 15 14 13 12 11 11 11 10 10 10 10 11 12 12 12 11 10 9 8 8 7 7 6 6 5 5
22 23 24 25 26 26 26 25 25 24 24 24 24 24 24 24 24 24 24 24 23 23 22 22 22 21 21 21 21 20 20 20 20 20 19 19 19 19 19 19 18 17 16 15 14 13 13 12 12 12 11 11 11 11 12 12 12 12 11 10 9 8 8 7 7 7 7 6 6
22 23 24 25 25 25 25 25 24 24 24 24 23 23 23 23 23 23 23 23 22 21 21 20 20 19 19 19 18 18 18 18 18 18 18 18 19 19 19 19 18 17 16 15 14 13 13 13 13 12 13 13 13 12 12 12 12 12 11 10 10 9 9 8 8 8 7 7 6
20 22 23 23 24 24 24 24 24 23 23 22 22 22 22 21 21 22 22 22 21 20 19 19 18 18 17 16 16 15 16 16 17 17 17 18 18 18 18 18 18 17 16 15 14 13 13 13 14 14 14 14 14 13 13 13 12 11 11 10 10 10 10 9 9 9 8 8 7
18 19 20 22 22 23 23 23 22 22 22 21 21 21 21 20 20 20 20 20 20 19 19 18 17 17 16 15 14 14 15 15 16 17 17 17 17 17 17 17 17 16 15 14 14 14 14 14 15 15 15 15 14 14 13 13 12 12 11 11 11 10 10 10 10 9 9 8 7
15 16 17 19 21 21 22 22 21 21 20 20 20 20 20 20 19 19 19 18 18 18 17 17 16 16 15 15 15 15 15 16 16 17 17 17 17 16 16 16 15 15 15 15 14 14 15 15 15 16 16 15 15 14 14 13 13 12 12 12 12 11 11 11 10 9 9 8 8
12 13 14 16 18 20 20 20 20 20 19 19 19 19 19 18 18 18 17 17 16 16 16 16 15 15 15 15 16 17 18 18 17 17 17 17 16 16 15 15 15 15 15 15 15 15 15 15 15 16 16 15 15 14 14 14 13 13 13 12 12 12 12 11 10 10 9 9 8
12 12 13 14 16 18 19 19 19 19 19 19 18 18 18 17 17 17 16 15 15 14 14 15 15 16 16 17 18 19 20 19 19 19 18 17 16 16 15 15 14 15 15 15 15 15 15 15 16 16 16 15 15 14 14 14 14 13 13 12 12 12 12 11 10 10 10 9 8
12 12 12 13 15 17 18 19 19 18 18 18 18 17 17 16 16 15 15 15 14 14 15 15 16 17 17 18 19 20 20 20 20 19 18 16 15 15 14 13 14 14 14 14 14 14 14 15 16 16 16 16 15 14 14 14 13 13 12 12 11 11 11 11 10 10 10 9 8
13 12 12 12 13 15 17 18 18 18 18 17 17 16 16 15 15 15 15 15 15 15 15 16 16 17 17 18 19 20 20 20 19 18 17 15 14 13 13 12 13 13 13 13 14 14 15 15 16 16 16 16 15 14 14 13 13 12 11 11 10 10 10 10 10 10 10 9 8
Wind_Direction
159 161 162 162 162 162 163 164 165 166 167 169 170 171 172 172 172 173 175 176 177 177 177 177 176 175 174 174 175 176 177 179 181 182 182 180 178 176 175 174 175 176 178 180 181 181 180 180 181 182 184 186 189 191 193 194 196 197 199 201 203 207 212 217 222 225 227 229 230
160 163 164 162 162 162 162 163 163 165 167 169 170 172 172 173 173 174 175 176 177 177 176 175 174 173 172 172 173 174 175 177 179 180 179 177 175 173 173 173 174 176 179 180 182 182 181 182 182 184 185 187 189 191 192 193 194 195 196 198 200 204 209 213 216 218 220 221 221
160 162 162 161 161 162 162 162 163 164 166 168 170 171 173 173 174 174 175 176 177 176 175 173 172 171 170 171 172 174 175 176 177 177 176 174 173 172 172 172 174 177 179 181 183 183 183 183 184 185 186 187 190 191 191 191 192 192 192 193 195 198 202 205 206 208 210 212 212
157 159 160 160 162 163 163 164 164 165 166 168 170 171 172 173 174 174 174 175 175 174 174 172 170 169 170 171 172 173 174 175 175 174 172 171 170 170 171 172 174 177 180 182 183 184 184 185 185 186 187 188 190 191 190 189 187 185 185 185 187 191 193 196 197 200 203 205 205
154 156 158 160 161 163 164 165 165 166 167 169 169 170 171 173 174 174 173 173 173 173 173 171 169 168 169 170 171 171 172 173 173 172 170 169 168 169 170 172 174 177 180 182 184 185 185 186 186 187 187 189 189 189 188 185 182 179 178 178 180 183 185 188 191 194 197 199 200
152 154 156 158 160 162 163 165 166 166 167 168 169 170 171 172 173 172 172 172 172 172 172 170 168 168 169 169 170 170 171 172 171 170 168 167 167 168 170 173 175 178 180 182 183 185 187 188 187 187 188 189 188 187 184 181 178 176 176 176 177 179 181 184 187 191 193 196 197
151 153 156 159 161 163 164 164 165 165 166 167 168 170 171 172 172 171 171 172 171 171 170 169 168 168 168 168 169 169 170 170 170 168 167 166 166 168 171 174 176 178 180 181 183 186 188 188 188 187 188 188 188 185 183 179 178 177 177 177 178 179 181 184 187 190 193 195 198
152 155 159 162 164 164 163 163 163 164 165 166 167 169 171 171 171 171 171 171 170 169 168 168 168 168 167 167 168 168 168 168 168 167 166 166 167 169 172 175 177 178 180 182 184 186 188 188 188 188 188 188 187 185 182 180 180 180 181 181 181 183 184 186 190 193 196 200 204
152 156 160 163 163 162 162 162 163 164 164 166 167 169 170 171 171 171 171 170 169 168 168 167 167 167 167 167 167 167 167 166 166 166 166 167 168 171 174 176 177 179 180 183 185 187 188 188 188 188 188 188 187 185 183 182 183 184 185 186 186 187 189 191 194 197 201 205 210
153 156 159 161 161 161 162 162 164 165 166 167 168 169 169 170 171 171 170 170 168 167 167 167 166 166 166 166 166 166 165 165 165 165 166 168 170 173 175 176 178 179 181 183 186 187 188 188 188 188 188 187 186 186 185 185 187 189 190 190 191 192 194 196 199 202 206 209 216
156 158 161 162 162 162 163 163 164 167 168 169 169 169 169 170 170 170 170 169 167 166 166 166 166 166 166 166 165 165 165 164 165 165 167 169 172 174 176 177 179 180 182 184 186 187 188 187 187 187 187 186 186 187 188 189 192 193 194 193 193 195 197 200 203 206 209 214 220
161 163 164 165 165 164 164 165 166 168 170 170 170 170 169 169 170 170 170 168 167 165 165 165 165 166 165 165 165 164 164 165 165 166 168 170 173 174 176 178 179 181 183 184 185 186 187 187 186 186 186 186 186 188 192 194 196 196 195 194 194 196 198 201 204 207 213 220 229
164 165 167 168 168 167 166 167 167 169 170 170 170 169 169 170 170 171 170 168 166 164 164 164 165 166 165 165 165 164 165 165 166 168 169 171 173 175 176 178 180 182 183 184 185 185 185 185 185 186 186 187 188 191 194 197 198 197 195 194 194 196 197 199 201 205 214 227 237
164 165 167 168 168 167 167 166 167 168 169 169 169 169 169 170 170 171 169 167 165 163 163 164 166 166 166 165 165 165 165 166 167 169 171 172 173 175 176 179 180 182 183 184 184 184 184 184 184 185 186 188 190 193 195 197 197 195 193 193 194 194 194 195 196 201 211 228 237
162 164 165 166 165 165 165 165 165 167 169 169 169 169 169 169 170 170 168 166 164 163 164 165 166 167 167 167 166 166 166 168 169 170 171 172 173 175 177 178 180 181 182 182 181 181 182 182 183 184 186 189 192 194 195 195 193 192 191 191 191 190 190 192 194 199 209 224 240
160 161 162 162 162 162 162 163 166 168 169 169 169 169 169 169 169 169 167 165 164 164 165 166 168 169 168 168 167 167 168 169 170 171 171 172 173 174 176 178 179 180 180 180 179 179 179 180 181 183 185 189 192 194 194 193 191 190 190 189 187 186 190 196 198 202 210 227 247
154 155 156 158 160 162 163 165 168 170 170 170 170 170 170 169 168 167 167 166 166 166 167 169 169 169 169 169 168 169 170 170 171 171 171 171 172 174 176 177 178 178 178 178 178 178 178 178 179 181 184 188 191 193 193 191 191 190 190 188 186 189 196 204 209 214 222 238 253
150 152 155 158 162 165 167 169 170 171 171 170 170 170 169 168 166 166 167 168 168 169 170 171 170 170 169 169 169 170 171 171 171 171 171 172 173 174 175 176 177 176 176 176 176 176 176 177 178 181 184 188 190 191 191 190 190 189 189 189 190 196 205 214 220 228 237 248 255
152 155 159 163 167 169 171 172 172 171 171 170 170 169 168 167 166 166 167 169 171 172 172 171 171 170 169 169 170 170 171 171 171 171 172 173 173 174 174 175 175 175 175 175 174 174 175 178 180 184 187 189 189 189 188 188 187 186 187 192 200 209 216 220 225 230 237 246 252
156 160 163 167 169 171 172 172 172 171 170 170 169 168 167 166 166 167 169 171 173 174 174 172 171 170 170 170 170 170 171 171 171 172 172 173 173 174 174 174 174 173 173 173 173 175 177 180 184 188 190 190 187 184 183 183 182 183 188 199 213 223 227 227 226 229 234 241 247
158 162 165 167 169 170 171 171 171 171 170 169 167 166 166 166 167 169 171 173 175 175 175 174 172 171 171 171 170 170 170 171 172 172 173 173 174 174 174 173 173 173 173 174 175 178 181 184 186 188 188 187 183 181 179 180 182 187 198 212 226 233 235 232 228 228 231 238 245
158 161 164 166 168 169 170 170 171 170 168 167 166 166 166 167 168 170 172 174 175 176 176 176 174 173 172 171 171 170 170 171 172 173 173 173 174 173 172 172 172 173 174 176 178 180 183 184 185 185 184 183 181 181 181 183 188 198 212 225 235 240 239 234 228 227 230 237 244
157 160 163 165 167 168 168 169 169 169 167 167 166 166 167 167 169 170 172 174 176 177 177 177 176 174 173 172 172 171 171 171 172 172 173 173 172 172 171 171 172 174 175 176 178 180 181 182 182 182 182 183 184 185 185 188 195 207 221 233 239 240 236 230 226 225 230 238 245
157 160 161 163 165 166 167 168 168 168 167 167 167 167 167 168 169 170 172 174 176 177 178 177 176 175 174 173 173 172 171 170 170 171 171 171 170 170 170 171 172 174 175 175 176 177 178 180 181 183 185 187 189 190 190 193 200 212 223 233 237 236 231 224 223 226 232 240 244
157 159 160 161 163 165 167 168 168 168 168 168 167 167 167 168 169 171 173 174 176 178 178 178 177 176 175 174 174 173 172 170 169 168 167 167 167 168 169 170 172 173 174 175 175 177 179 183 186 190 193 196 196 195 195 199 208 216 224 230 233 232 228 222 222 228 236 242 243
157 158 159 161 163 164 166 168 169 169 169 169 168 168 168 169 170 172 173 174 176 177 178 177 176 176 175 174 173 173 172 170 168 166 164 163 162 164 166 168 171 173 175 176 178 181 186 191 197 203 207 208 207 205 205 209 215 220 222 224 226 226 226 225 226 231 238 242 240
157 158 160 161 162 164 166 168 169 169 169 169 169 169 169 170 171 173 174 175 176 177 177 177 176 175 174 174 173 173 172 170 168 166 164 161 160 160 162 165 169 173 177 180 184 189 195 201 207 213 218 219 218 217 219 221 222 220 217 214 215 219 223 226 230 236 242 243 241
158 160 161 162 162 163 165 166 168 168 169 170 170 170 170 171 172 173 174 175 175 176 176 176 175 174 174 174 173 173 171 170 169 167 166 164 163 162 163 165 170 175 180 185 191 197 203 208 213 219 223 226 227 229 230 229 224 218 211 207 207 211 216 221 227 236 243 246 242
158 159 160 161 162 162 164 165 167 167 168 169 170 170 170 171 172 173 174 175 175 175 175 175 174 174 174 174 173 172 171 170 170 170 169 169 169 168 169 170 174 179 185 191 197 203 207 210 212 215 221 228 233 235 232 227 220 213 206 202 202 205 209 214 219 224 230 234 233
156 158 159 160 161 162 163 165 166 167 167 168 169 169 170 171 172 173 174 175 175 175 175 174 174 174 173 173 172 172 172 172 172 172 173 174 175 176 176 177 180 185 191 196 202 205 207 206 206 210 219 229 234 230 223 216 211 205 200 197 197 199 203 208 211 212 212 213 215
156 157 159 160 161 162 163 164 165 165 166 166 167 168 169 170 172 173 175 175 175 175 175 174 174 173 172 172 172 172 172 173 174 175 177 178 180 181 182 184 187 192 197 202 205 207 205 203 206 214 223 227 225 217 209 204 201 197 193 191 191 194 199 202 202 199 197 194 191
156 158 159 160 161 162 163 163 163 163 164 165 166 167 169 171 172 173 174 175 175 175 175 174 174 173 172 172 172 173 173 175 176 178 180 182 184 186 188 190 193 198 202 207 210 210 210 210 214 218 221 219 211 204 199 196 193 190 187 187 188 192 195 195 192 188 185 180 173
157 158 160 161 161 162 162 162 162 162 163 164 166 167 169 170 171 173 174 175 176 175 175 174 173 173 172 172 173 174 175 177 179 182 184 186 188 190 192 195 198 202 207 211 214 215 216 216 217 216 212 206 200 196 193 190 187 184 183 184 188 190 190 187 185 182 180 176 174
156 158 160 161 161 161 161 161 161 162 163 164 165 167 168 169 171 172 174 175 175 175 174 173 173 173 173 173 175 177 178 180 182 185 187 189 191 193 196 199 202 206 210 214 217 218 218 216 213 208 202 198 195 192 188 184 181 179 181 185 188 188 186 184 183 183 182 181 180
154 157 159 160 160 160 160 160 162 163 163 164 165 167 168 169 171 172 173 174 174 175 174 173 173 174 175 176 178 180 182 184 185 186 188 190 192 194 197 200 204 208 212 216 218 217 214 211 206 201 196 193 191 187 183 178 177 178 183 189 189 187 185 184 186 187 188 186 184
150 153 157 159 160 159 160 161 162 163 164 164 165 167 168 170 171 172 173 173 173 173 173 174 174 175 177 178 179 180 183 184 185 186 187 189 192 195 197 201 205 209 213 215 215 212 209 205 200 196 193 190 187 183 178 176 177 182 187 190 190 188 187 188 190 191 191 189 187
143 148 153 156 158 159 159 160 162 163 164 165 166 167 168 170 171 172 172 172 172 173 173 173 175 176 177 177 178 179 181 183 185 186 187 189 192 194 198 201 206 210 213 213 211 208 204 201 197 193 190 187 184 179 177 178 182 186 190 191 190 190 191 192 194 195 194 191 190
136 141 146 150 154 156 158 160 162 163 165 166 166 167 167 168 169 170 170 169 171 172 172 173 174 175 176 177 179 180 181 182 184 186 187 188 191 195 200 204 208 210 211 210 207 203 200 197 193 190 187 184 182 180 180 182 187 190 192 194 195 195 196 196 197 196 195 193 193
128 132 138 143 149 153 157 160 163 165 166 166 166 166 166 166 167 167 166 166 167 169 170 172 173 175 177 180 182 182 181 181 182 184 186 189 193 198 204 208 210 210 210 207 204 199 196 193 190 187 185 184 183 184 185 188 192 194 197 198 201 201 201 199 198 197 196 196 196
122 126 131 138 145 151 155 159 162 164 165 165 166 166 166 166 165 164 163 163 165 168 170 172 174 176 179 183 184 182 181 180 181 184 187 193 199 203 207 210 210 209 207 205 199 195 191 189 187 185 183 183 184 186 189 193 196 199 201 204 206 207 206 203 200 198 197 198 199
121 124 128 134 143 150 155 157 159 160 162 163 165 165 165 164 164 164 163 165 166 169 171 174 176 178 181 184 184 182 181 181 182 185 191 197 202 206 208 206 205 205 204 201 195 191 188 187 186 184 183 182 183 186 191 196 200 204 206 208 210 211 210 208 204 201 200 200 202
Height
1389 1391 1394 1397 1400 1403 1406 1409 1412 1415 1417 1419 1422 1424 1427 1430 1433 1436 1439 1442 1444 1447 1450 1454 1457 1460 1463 1465 1468 1470 1473 1475 1477 1479 1482 1484 1486 1488 1490 1492 1494 1496 1498 1500 1502 1504 1505 1507 1508 1509 1510 1511 1512 1514 1514 1516 1517 1517 1518 1519 1520 1521 1522 1523 1524 1524 1525 1525 1526
1389 1392 1395 1399 1401 1404 1406 1410 1412 1415 1417 1420 1422 1424 1427 1430 1433 1436 1439 1442 1445 1448 1451 1454 1458 1460 1463 1466 1468 1470 1473 1475 1477 1479 1482 1484 1486 1489 1491 1493 1494 1496 1498 1500 1502 1504 1505 1506 1508 1509 1510 1511 1512 1513 1514 1515 1516 1517 1518 1519 1520 1521 1522 1523 1523 1524 1524 1525 1526
1390 1394 1397 1400 1402 1404 1407 1409 1412 1415 1418 1420 1422 1425 1428 1431 1434 1436 1439 1442 1445 1449 1452 1455 1458 1461 1463 1466 1468 1471 1473 1475 1477 1479 1482 1484 1487 1489 1491 1493 1495 1497 1499 1500 1502 1503 1505 1506 1507 1508 1509 1510 1512 1513 1514 1515 1516 1517 1518 1519 1520 1521 1522 1522 1523 1524 1524 1525 1525
1392 1396 1398 1400 1402 1404 1406 1409 1412 1415 1418 1420 1423 1426 1429 1432 1434 1437 1440 1443 1446 1449 1453 1455 1458 1461 1464 1466 1468 1471 1473 1475 1478 1480 1482 1484 1487 1489 1491 1493 1495 1497 1498 1500 1502 1503 1504 1506 1507 1508 1509 1510 1512 1513 1514 1515 1516 1517 1518 1519 1520 1521 1521 1522 1523 1524 1524 1525 1525
1394 1397 1399 1401 1403 1405 1407 1409 1412 1415 1418 1421 1424 1427 1430 1432 1435 1438 1440 1444 1447 1450 1453 1456 1458 1461 1464 1466 1468 1471 1473 1476 1478 1480 1482 1484 1487 1489 1491 1493 1495 1496 1498 1500 1501 1503 1504 1505 1507 1508 1509 1510 1512 1513 1514 1515 1516 1517 1518 1519 1520 1520 1521 1522 1523 1523 1524 1524 1525
1396 1398 1399 1402 1404 1406 1408 1410 1412 1415 1419 1422 1425 1427 1430 1433 1435 1438 1441 1444 1448 1451 1454 1456 1459 1461 1464 1466 1469 1471 1473 1476 1478 1480 1483 1485 1487 1489 1491 1493 1495 1496 1498 1500 1501 1503 1504 1505 1506 1508 1509 1510 1512 1513 1514 1515 1516 1517 1518 1519 1519 1520 1521 1522 1523 1523 1524 1524 1525
1396 1398 1400 1403 1405 1407 1409 1412 1414 1417 1420 1424 1426 1428 1430 1433 1436 1439 1442 1445 1448 1451 1454 1457 1459 1461 1464 1466 1469 1471 1473 1476 1478 1481 1483 1485 1487 1489 1491 1493 1494 1496 1498 1499 1501 1502 1504 1505 1506 1507 1509 1510 1512 1513 1514 1515 1516 1517 1518 1519 1519 1520 1521 1522 1523 1523 1524 1524 1525
1396 1398 1401 1404 1407 1409 1411 1413 1415 1419 1422 1425 1427 1429 1432 1434 1437 1440 1443 1446 1449 1452 1454 1457 1459 1462 1464 1466 1469 1471 1473 1476 1478 1481 1483 1485 1487 1489 1491 1493 1494 1496 1498 1499 1501 1502 1503 1504 1506 1508 1509 1510 1512 1513 1514 1515 1516 1517 1518 1519 1519 1520 1521 1522 1523 1523 1524 1524 1525
1397 1399 1403 1406 1409 1411 1412 1414 1417 1420 1423 1426 1429 1431 1433 1435 1438 1441 1444 1447 1450 1452 1455 1458 1460 1462 1465 1467 1469 1471 1474 1476 1478 1480 1483 1485 1487 1489 1491 1493 1494 1496 1498 1499 1500 1502 1503 1504 1506 1508 1509 1510 1512 1513 1514 1515 1516 1517 1518 1519 1519 1520 1521 1522 1522 1523 1524 1524 1525
1398 1401 1405 1408 1411 1413 1414 1416 1419 1421 1424 1427 1430 1433 1435 1437 1440 1443 1445 1448 1450 1453 1456 1458 1461 1463 1465 1468 1469 1472 1474 1476 1478 1481 1483 1485 1487 1489 1490 1492 1494 1495 1497 1499 1500 1502 1503 1505 1506 1508 1509 1510 1512 1513 1514 1515 1516 1517 1518 1519 1519 1520 1521 1522 1522 1523 1524 1524 1524
1400 1403 1407 1409 1412 1414 1417 1419 1421 1424 1426 1429 1433 1435 1437 1439 1442 1444 1446 1449 1451 1454 1457 1459 1462 1464 1466 1468 1470 1472 1474 1476 1479 1481 1483 1485 1487 1489 1490 1492 1494 1495 1497 1499 1500 1502 1504 1505 1506 1508 1509 1510 1512 1513 1514 1515 1516 1517 1518 1519 1519 1520 1521 1521 1522 1523 1523 1524 1524
1403 1405 1409 1411 1414 1416 1419 1421 1423 1426 1429 1432 1435 1437 1439 1441 1443 1445 1448 1450 1452 1455 1458 1460 1462 1464 1466 1468 1470 1472 1474 1477 1479 1481 1483 1485 1487 1489 1490 1492 1494 1495 1497 1499 1500 1502 1504 1505 1507 1508 1509 1510 1512 1513 1514 1515 1516 1517 1518 1519 1519 1520 1521 1521 1522 1523 1523 1524 1524
1405 1408 1411 1413 1416 1418 1420 1423 1425 1428 1431 1434 1436 1438 1440 1442 1444 1446 1449 1451 1454 1456 1459 1461 1463 1465 1467 1468 1470 1472 1475 1477 1479 1481 1483 1485 1487 1489 1491 1492 1494 1496 1498 1499 1501 1503 1504 1505 1507 1508 1509 1510 1511 1513 1514 1515 1516 1517 1518 1519 1519 1520 1521 1521 1522 1523 1523 1524 1524
1408 1410 1413 1415 1417 1419 1421 1424 1426 1429 1432 1435 1437 1439 1441 1443 1445 1447 1449 1452 1454 1457 1459 1462 1464 1465 1467 1469 1470 1473 1475 1477 1479 1481 1483 1485 1487 1489 1491 1493 1494 1496 1498 1499 1501 1503 1504 1506 1507 1508 1509 1510 1511 1513 1514 1515 1516 1517 1518 1519 1519 1520 1521 1521 1522 1523 1523 1524 1524
1410 1412 1414 1416 1418 1420 1422 1425 1428 1431 1434 1436 1438 1440 1442 1444 1446 1449 1451 1453 1455 1458 1459 1462 1464 1466 1467 1469 1471 1473 1475 1477 1479 1481 1483 1485 1487 1489 1491 1493 1494 1496 1498 1499 1501 1503 1504 1506 1507 1508 1509 1510 1512 1513 1514 1515 1516 1517 1518 1519 1519 1520 1521 1521 1522 1523 1523 1523 1523
1410 1412 1414 1417 1419 1421 1424 1426 1429 1432 1434 1437 1439 1440 1442 1444 1447 1449 1452 1454 1456 1458 1460 1461 1463 1465 1467 1469 1471 1474 1475 1477 1479 1481 1484 1486 1488 1490 1491 1493 1495 1496 1498 1500 1501 1503 1504 1506 1507 1508 1509 1510 1512 1513 1514 1515 1516 1517 1518 1519 1519 1520 1521 1521 1522 1522 1522 1523 1523
1411 1413 1415 1418 1420 1423 1425 1428 1431 1433 1435 1437 1439 1441 1443 1445 1448 1450 1453 1454 1456 1458 1459 1461 1463 1464 1467 1469 1472 1474 1476 1478 1480 1482 1484 1487 1488 1490 1492 1494 1495 1497 1498 1500 1501 1503 1504 1506 1507 1508 1509 1511 1512 1513 1514 1515 1516 1517 1518 1519 1519 1520 1520 1521 1521 1522 1522 1522 1522
1412 1414 1417 1419 1422 1424 1427 1429 1432 1434 1436 1438 1440 1442 1444 1446 1448 1451 1453 1455 1456 1457 1459 1461 1463 1465 1467 1470 1472 1474 1477 1479 1481 1483 1485 1487 1489 1490 1492 1494 1495 1497 1499 1500 1501 1503 1504 1506 1507 1509 1509 1511 1512 1513 1514 1515 1516 1517 1518 1518 1519 1519 1520 1520 1521 1521 1521 1522 1522
1414 1416 1419 1421 1424 1426 1428 1430 1433 1435 1437 1439 1440 1442 1444 1447 1449 1451 1453 1455 1456 1457 1459 1461 1464 1466 1469 1471 1473 1475 1478 1480 1482 1484 1486 1488 1489 1491 1493 1494 1496 1497 1499 1500 1502 1503 1505 1506 1507 1509 1509 1511 1512 1513 1514 1515 1516 1516 1517 1518 1519 1519 1519 1520 1520 1520 1521 1521 1521
1415 1418 1420 1423 1425 1427 1429 1432 1434 1435 1437 1439 1441 1443 1445 1448 1449 1451 1453 1455 1457 1459 1460 1462 1464 1467 1469 1472 1474 1476 1479 1481 1483 1485 1486 1488 1490 1491 1493 1494 1496 1497 1499 1500 1502 1504 1505 1506 1507 1508 1509 1511 1512 1513 1514 1514 1515 1516 1517 1518 1518 1519 1519 1519 1519 1520 1520 1521 1521
1417 1419 1422 1424 1426 1429 1431 1433 1434 1436 1438 1440 1442 1444 1446 1448 1450 1452 1454 1455 1458 1460 1462 1464 1466 1468 1470 1473 1475 1477 1479 1481 1483 1485 1487 1488 1490 1492 1493 1494 1496 1498 1499 1501 1502 1504 1505 1506 1507 1508 1509 1510 1512 1513 1514 1514 1515 1516 1517 1517 1518 1518 1519 1519 1519 1519 1520 1520 1520
1419 1421 1424 1426 1428 1430 1432 1434 1435 1437 1439 1441 1443 1445 1447 1449 1451 1453 1455 1457 1459 1461 1463 1465 1468 1469 1472 1474 1476 1478 1479 1482 1484 1485 1487 1489 1490 1492 1494 1495 1497 1498 1499 1501 1502 1504 1505 1506 1507 1508 1509 1510 1511 1512 1513 1514 1515 1516 1516 1517 1517 1518 1518 1519 1519 1519 1519 1520 1520
1421 1423 1425 1427 1429 1431 1433 1434 1436 1438 1440 1442 1444 1446 1448 1450 1452 1454 1456 1458 1460 1462 1464 1467 1469 1471 1473 1475 1477 1478 1480 1482 1484 1485 1487 1489 1490 1492 1494 1495 1497 1498 1500 1501 1502 1504 1505 1506 1507 1508 1509 1510 1511 1512 1513 1514 1515 1515 1516 1516 1517 1517 1518 1518 1518 1519 1519 1519 1520
1423 1425 1427 1429 1430 1432 1434 1435 1437 1439 1441 1443 1445 1448 1449 1452 1454 1455 1458 1459 1461 1463 1465 1468 1470 1472 1474 1475 1477 1479 1480 1482 1484 1485 1487 1489 1491 1492 1494 1495 1497 1499 1500 1501 1503 1504 1505 1506 1507 1508 1509 1510 1511 1512 1513 1514 1514 1515 1515 1516 1516 1517 1517 1518 1518 1519 1519 1519 1520
1424 1426 1428 1429 1431 1433 1435 1436 1438 1440 1442 1444 1447 1449 1451 1453 1455 1457 1458 1460 1462 1464 1466 1468 1470 1472 1474 1476 1478 1480 1481 1483 1484 1486 1488 1489 1491 1493 1494 1496 1497 1499 1500 1501 1503 1504 1505 1506 1507 1508 1509 1510 1511 1512 1513 1513 1514 1514 1515 1515 1516 1516 1517 1517 1518 1518 1519 1519 1519
1425 1427 1429 1431 1432 1434 1436 1438 1440 1442 1444 1446 1449 1450 1452 1454 1456 1457 1459 1461 1463 1465 1467 1469 1471 1473 1475 1477 1479 1480 1482 1484 1485 1487 1488 1490 1491 1493 1494 1496 1497 1499 1500 1501 1503 1504 1505 1506 1507 1508 1509 1510 1510 1511 1512 1513 1513 1514 1514 1515 1515 1516 1516 1517 1518 1518 1519 1519 1519
1427 1428 1430 1432 1434 1436 1438 1439 1442 1444 1446 1448 1450 1451 1453 1455 1456 1458 1460 1462 1464 1466 1468 1469 1472 1474 1475 1477 1479 1481 1482 1484 1486 1488 1489 1490 1492 1493 1495 1496 1497 1499 1500 1501 1503 1504 1505 1506 1507 1508 1509 1509 1510 1511 1512 1512 1513 1513 1514 1514 1515 1516 1516 1517 1518 1518 1519 1519 1519
1428 1429 1431 1433 1435 1437 1439 1441 1443 1445 1447 1449 1451 1452 1454 1455 1457 1459 1461 1462 1464 1466 1468 1470 1472 1474 1476 1477 1479 1481 1483 1484 1486 1488 1489 1491 1492 1494 1495 1496 1498 1499 1500 1501 1502 1504 1504 1506 1507 1507 1508 1509 1509 1510 1511 1512 1512 1513 1513 1514 1515 1515 1516 1517 1517 1518 1518 1519 1519
1429 1431 1433 1435 1437 1439 1440 1443 1444 1446 1448 1450 1451 1453 1455 1456 1458 1460 1461 1463 1465 1467 1469 1470 1472 1474 1476 1478 1479 1481 1483 1484 1486 1488 1489 1491 1493 1494 1495 1497 1498 1499 1500 1501 1502 1503 1504 1505 1506 1507 1508 1509 1509 1510 1510 1511 1512 1512 1513 1514 1514 1515 1516 1516 1517 1517 1518 1518 1519
1431 1433 1434 1436 1438 1440 1442 1444 1445 1447 1449 1451 1452 1454 1455 1457 1459 1460 1462 1464 1466 1467 1469 1471 1473 1474 1476 1478 1480 1482 1483 1485 1487 1488 1490 1491 1493 1494 1495 1497 1498 1499 1500 1501 1502 1503 1504 1505 1506 1507 1507 1508 1509 1509 1510 1510 1511 1512 1513 1513 1514 1515 1516 1516 1517 1517 1518 1518 1518
1433 1435 1436 1438 1440 1441 1443 1445 1447 1448 1450 1451 1453 1455 1456 1458 1459 1461 1463 1464 1466 1468 1470 1472 1474 1475 1477 1479 1480 1482 1484 1485 1487 1489 1490 1492 1493 1494 1495 1497 1498 1499 1500 1501 1502 1503 1504 1505 1506 1506 1507 1508 1508 1509 1509 1510 1511 1512 1512 1513 1514 1514 1515 1516 1516 1517 1517 1518 1518
1435 1436 1438 1439 1441 1443 1444 1446 1448 1449 1451 1452 1454 1455 1457 1459 1460 1462 1464 1465 1467 1469 1471 1473 1474 1476 1478 1480 1481 1483 1484 1486 1487 1489 1490 1492 1493 1494 1495 1496 1497 1499 1499 1500 1502 1503 1504 1504 1505 1506 1507 1507 1508 1508 1509 1510 1510 1511 1512 1513 1514 1514 1515 1515 1516 1516 1517 1517 1518
1437 1438 1439 1441 1442 1444 1445 1447 1449 1450 1451 1453 1454 1456 1457 1459 1461 1463 1464 1466 1468 1470 1472 1474 1475 1477 1479 1480 1482 1483 1485 1486 1488 1489 1490 1492 1493 1494 1495 1496 1497 1498 1499 1500 1501 1502 1503 1504 1505 1505 1506 1507 1507 1508 1509 1509 1510 1511 1512 1513 1514 1514 1515 1515 1516 1516 1517 1517 1517
1439 1440 1441 1442 1444 1445 1446 1448 1449 1450 1452 1454 1455 1457 1458 1460 1462 1464 1465 1467 1469 1471 1473 1474 1476 1478 1479 1481 1482 1484 1485 1486 1488 1489 1490 1491 1493 1494 1495 1496 1497 1498 1499 1500 1501 1502 1503 1503 1504 1505 1505 1506 1507 1507 1508 1509 1510 1511 1512 1513 1513 1514 1514 1515 1515 1516 1516 1517 1517
1440 1441 1442 1444 1445 1446 1447 1449 1450 1451 1453 1454 1456 1458 1459 1461 1463 1464 1466 1468 1469 1471 1473 1475 1476 1478 1480 1481 1483 1484 1485 1486 1487 1489 1490 1491 1492 1493 1494 1495 1497 1498 1499 1499 1500 1501 1502 1503 1503 1504 1505 1505 1506 1507 1508 1509 1510 1511 1512 1512 1513 1514 1514 1514 1515 1515 1516 1516 1517
1442 1443 1444 1444 1446 1447 1448 1449 1451 1452 1454 1455 1457 1458 1460 1462 1463 1465 1466 1468 1469 1471 1473 1475 1476 1478 1479 1481 1482 1484 1485 1486 1487 1488 1489 1490 1492 1493 1494 1495 1496 1497 1498 1499 1500 1500 1501 1502 1503 1504 1504 1505 1506 1507 1508 1509 1509 1511 1511 1512 1513 1513 1514 1514 1514 1515 1516 1516 1517
1443 1444 1444 1445 1447 1448 1449 1450 1452 1453 1454 1456 1458 1459 1460 1462 1464 1466 1467 1469 1470 1472 1473 1475 1476 1478 1479 1481 1482 1483 1484 1486 1487 1488 1489 1490 1491 1493 1494 1495 1496 1497 1497 1498 1499 1500 1500 1501 1502 1503 1504 1505 1506 1507 1508 1509 1509 1510 1511 1512 1512 1513 1513 1514 1514 1515 1515 1516 1516
1444 1445 1446 1446 1448 1449 1450 1451 1453 1454 1455 1457 1458 1460 1461 1463 1464 1466 1468 1469 1471 1473 1474 1475 1477 1478 1479 1481 1482 1483 1484 1485 1487 1488 1489 1490 1491 1492 1493 1494 1495 1496 1497 1498 1498 1499 1500 1501 1502 1503 1504 1505 1506 1507 1508 1509 1509 1510 1511 1511 1512 1513 1513 1514 1514 1515 1515 1516 1516
1445 1446 1447 1448 1449 1449 1451 1452 1454 1455 1456 1458 1459 1461 1462 1464 1465 1467 1469 1470 1472 1473 1474 1476 1477 1478 1479 1481 1482 1483 1484 1485 1486 1488 1489 1490 1491 1492 1493 1494 1495 1495 1496 1497 1498 1499 1500 1501 1502 1503 1504 1505 1506 1507 1508 1509 1509 1510 1510 1511 1512 1512 1513 1514 1514 1514 1515 1515 1516
1446 1447 1448 1449 1449 1450 1452 1453 1454 1456 1457 1458 1460 1461 1463 1464 1466 1468 1469 1471 1472 1474 1475 1476 1477 1478 1479 1480 1481 1483 1484 1485 1486 1487 1489 1490 1491 1492 1493 1494 1494 1495 1496 1497 1498 1499 1500 1501 1502 1503 1504 1505 1506 1507 1508 1509 1509 1510 1510 1511 1511 1512 1513 1513 1514 1514 1514 1515 1515
1447 1448 1449 1450 1451 1452 1453 1454 1455 1456 1458 1459 1460 1462 1463 1465 1467 1468 1469 1471 1472 1474 1475 1476 1477 1478 1479 1480 1481 1483 1484 1485 1486 1487 1489 1490 1491 1492 1493 1494 1494 1495 1496 1497 1499 1499 1501 1502 1502 1503 1504 1505 1506 1507 1508 1508 1509 1509 1510 1511 1511 1512 1513 1513 1514 1514 1514 1515 1515